This is the latest recevied weather packets stored in our database for station/object BM2MWA-13. If no packets are shown the sender has not sent any weather packets the latest 10 day(s).
| Time | Temp. | Humidity | Pressure | Rain* | Wind** | Luminosity | Snow |
|---|---|---|---|---|---|---|---|
| 1787419624 | 26.11° C | 96% | 999.4 hPa | 0 mm | - | - | - |
| 1787419024 | 26.11° C | 95% | 999.5 hPa | 0 mm | - | - | - |
| 1787418424 | 26.11° C | 95% | 999.6 hPa | 0 mm | - | - | - |
| 1787417823 | 26.11° C | 93% | 999.6 hPa | 0 mm | - | - | - |
| 1787417223 | 26.11° C | 92% | 999.6 hPa | 0 mm | - | - | - |
| 1787416624 | 26.11° C | 94% | 999.6 hPa | 0 mm | - | - | - |
| 1787416024 | 26.11° C | 95% | 999.6 hPa | 0 mm | - | - | - |
| 1787415424 | 26.11° C | 94% | 999.6 hPa | 0 mm | - | - | - |
| 1787414824 | 26.11° C | 94% | 999.8 hPa | 0 mm | - | - | - |
| 1787414223 | 26.67° C | 96% | 999.9 hPa | 0 mm | - | - | - |
| 1787413623 | 26.67° C | 96% | 1000 hPa | 0 mm | - | - | - |
| 1787413024 | 26.67° C | 95% | 1000 hPa | 0 mm | - | - | - |
| 1787412424 | 26.67° C | 96% | 999.9 hPa | 0 mm | - | - | - |
| 1787411824 | 26.11° C | 96% | 999.9 hPa | 0 mm | - | - | - |
| 1787411224 | 26.67° C | 97% | 999.9 hPa | 0 mm | - | - | - |
| 1787410624 | 26.67° C | 97% | 999.9 hPa | 0 mm | - | - | - |
| 1787410023 | 26.67° C | 96% | 999.9 hPa | 0 mm | - | - | - |
| 1787409424 | 26.67° C | 93% | 999.9 hPa | 0 mm | - | - | - |
| 1787408823 | 26.67° C | 91% | 1000 hPa | 0 mm | - | - | - |
| 1787408223 | 26.67° C | 93% | 1000 hPa | 0 mm | - | - | - |
| 1787407624 | 26.67° C | 95% | 1000.2 hPa | 0 mm | - | - | - |
| 1787407024 | 26.67° C | 95% | 1000.2 hPa | 0 mm | - | - | - |
| 1787406423 | 26.67° C | 94% | 1000.3 hPa | 0 mm | - | - | - |
| 1787405823 | 26.67° C | 96% | 1000.3 hPa | 0 mm | - | - | - |
| 1787405223 | 26.67° C | 94% | 1000.3 hPa | 0 mm | - | - | - |
* Rain latest hour (hover to see other rain measurements)
** Current wind speed in m/s (hover to see current wind gust speed)